Find Starlink 5245

NORAD ID: 54168 Int'l Des: 2022-141 Owner: SPXS Country: US Constellation: starlink operational
LEOCIRCULAR

当前视图

正在加载3D地球...

About Starlink 5245

Starlink 5245 (NORAD 54168) is a starlink constellation satellite (v1.5) launched Oct 28, 2022 by SPXS of US. It operates in LEO, CIRCULAR orbit with a mass of 305.00 kg.

即将过境

Passes for default location (London). Set your location on the main map for personalized predictions.

高度历史

Loading altitude history...

两行轨道根数

1 54168U 22141M 26266.18445093 .00001798 00000-0 64356-4 0 9993
2 54168 53.1595 181.3449 0001412 107.9310 252.1847 15.34390832215895
Epoch: Sep 23, 2026 • Age: 8 hours

当前状态

高度 462.9 km
远地点 / 近地点 N/A
速度 7.64 km/s
星下点 14.96°N, 4.06°E
发射日期 Oct 28, 2022
运行时间 3.9 years
类型 internet

技术详情

分类 Payload
质量 305.00 kg
干质量 290.00 kg
长度 0.20 m
跨度 9.00 m
形状 ? Box + pan
制造商 SPXS
平台类型 Starlink
阶段状态 In Orbit
所有者/国家 SPXS/US

Most Searched